This is the latest recevied weather packets stored in our database for station/object W8DRH-13. If no packets are shown the sender has not sent any weather packets the latest 10 day(s).
| Time | Temp. | Humidity | Pressure | Rain* | Wind** | Luminosity | Snow |
|---|---|---|---|---|---|---|---|
| 1778192649 | 13.89° C | 51% | 1010.5 hPa | 0 mm | - | 244 W/m² | - |
| 1778192345 | 13.33° C | 50% | 1010.8 hPa | 0 mm | - | 277 W/m² | - |
| 1778192042 | 12.78° C | 52% | 1010.6 hPa | 0 mm | - | 262 W/m² | - |
| 1778191737 | 12.78° C | 50% | 1010.7 hPa | 0 mm | - | 103 W/m² | - |
| 1778191436 | 12.78° C | 48% | 1010.7 hPa | 0 mm | - | 115 W/m² | - |
| 1778191132 | 13.33° C | 51% | 1010.7 hPa | 0 mm | - | 108 W/m² | - |
| 1778190829 | 13.33° C | 49% | 1010.5 hPa | 0 mm | - | 120 W/m² | - |
| 1778190526 | 13.89° C | 49% | 1010.4 hPa | 0 mm | - | 109 W/m² | - |
| 1778190223 | 13.89° C | 46% | 1010.3 hPa | 0 mm | - | 314 W/m² | - |
| 1778189919 | 14.44° C | 49% | 1010.5 hPa | 0 mm | - | 354 W/m² | - |
| 1778189616 | 14.44° C | 51% | 1010.1 hPa | 0 mm | - | 395 W/m² | - |
| 1778189312 | 13.33° C | 50% | 1010.5 hPa | 0 mm | - | 403 W/m² | - |
| 1778189008 | 12.78° C | 50% | 1010.5 hPa | 0 mm | - | 438 W/m² | - |
| 1778188705 | 12.78° C | 51% | 1010.5 hPa | 0 mm | - | 131 W/m² | - |
| 1778188402 | 12.78° C | 52% | 1010.5 hPa | 0 mm | - | 102 W/m² | - |
| 1778188099 | 12.78° C | 50% | 1010.4 hPa | 0 mm | - | 96 W/m² | - |
| 1778187796 | 13.33° C | 50% | 1010.5 hPa | 0 mm | - | 98 W/m² | - |
| 1778187492 | 13.89° C | 47% | 1010.3 hPa | 0 mm | - | 115 W/m² | - |
| 1778187189 | 13.89° C | 47% | 1010.3 hPa | 0 mm | - | 526 W/m² | - |
| 1778186885 | 13.89° C | 50% | 1010.2 hPa | 0 mm | - | 322 W/m² | - |
| 1778186583 | 13.33° C | 48% | 1010.5 hPa | 0 mm | - | 601 W/m² | - |
| 1778186280 | 13.33° C | 53% | 1010.3 hPa | 0 mm | - | 228 W/m² | - |
| 1778185978 | 13.33° C | 49% | 1010.4 hPa | 0 mm | - | 170 W/m² | - |
| 1778185674 | 13.33° C | 47% | 1010.5 hPa | 0 mm | - | 642 W/m² | - |
| 1778185370 | 13.89° C | 48% | 1010.4 hPa | 0 mm | - | 119 W/m² | - |
* Rain latest hour (hover to see other rain measurements)
** Current wind speed in m/s (hover to see current wind gust speed)